Weather History for KIAB - April, 2013

Change the Weather History Date:

Wednesday, April 17, 2013

  Actual Average Record
Temperature  
Mean Temperature 44 °F -  
Max Temperature 46 °F 67 °F 93 °F (2006)
Min Temperature 41 °F 46 °F 33 °F (2001)
Degree Days  
Heating Degree Days 22    
Moisture  
Dew Point 44 °F    
Average Humidity 100    
Maximum Humidity 100    
Minimum Humidity 100    
Precipitation  
Precipitation 0.25 in - - ()
Sea Level Pressure  
Sea Level Pressure 29.81 in    
Wind  
Wind Speed 12 mph (NNE)    
Max Wind Speed 24 mph    
Max Gust Speed 32 mph    
Visibility 6 miles    
Events Rain , Thunderstorm    
Averages and records for this station are not official NWS values.
T = Trace of Precipitation, MM = Missing Value Source: NWS Daily Summary

Daily Weather History Graph

Daily Weather History Graph

Search for Another Location

Airport or City:

Trip Planner

Search our weather history database for the weather conditions in past years. The results will help you decide how hot, cold, wet, or windy it might be!

Date:

Astronomy

Apr. 17, 2013 Rise Set
Actual Time 6:50 AM CDT 8:06 PM CDT
Civil Twilight 6:23 AM CDT 8:33 PM CDT
Nautical Twilight 5:51 AM CDT 9:06 PM CDT
Astronomical Twilight 5:17 AM CDT 9:40 PM CDT
Moon 12:08 PM CDT (4/17) 1:43 AM CDT (4/17)
Length of Visible Light 14h 10m
Length of Day
13h 15m
Waxing Crescent, 42% of the Moon is Illuminated
Apr 17
Waxing Crescent
Apr 18
First Quarter
Apr 25
Full
May 2
Last Quarter
May 9
New

Hourly Weather History & Observations

Time (CDT) Temp. Windchill Dew Point Humidity Pressure Visibility Wind Dir Wind Speed Gust Speed Precip Events Conditions
12:08 AM 42.8 °F 36.2 °F 42.8 °F 100% 29.98 in 6.0 mi East 12.7 mph - N/A   Overcast
12:13 AM 42.8 °F 35.8 °F 42.8 °F 100% 29.98 in 5.0 mi East 13.8 mph - N/A   Overcast
12:18 AM 42.8 °F 36.2 °F 42.8 °F 100% 29.98 in 4.0 mi ENE 12.7 mph - N/A   Overcast
12:28 AM 42.8 °F 37.0 °F 42.8 °F 100% 29.98 in 2.5 mi ENE 10.4 mph - N/A   Overcast
12:33 AM 42.8 °F 36.6 °F 42.8 °F 100% 29.98 in 2.5 mi ENE 11.5 mph - N/A   Overcast
12:58 AM 42.3 °F 35.1 °F 42.3 °F 100% 29.98 in 2.5 mi East 13.8 mph - N/A   Overcast
1:08 AM 42.8 °F 36.2 °F 42.8 °F 100% 29.97 in 3.0 mi ENE 12.7 mph - N/A   Overcast
1:13 AM 42.8 °F 36.6 °F 42.8 °F 100% 29.96 in 3.0 mi ENE 11.5 mph - N/A   Overcast
1:23 AM 42.8 °F 37.5 °F 42.8 °F 100% 29.97 in 3.0 mi ENE 9.2 mph - N/A   Overcast
1:28 AM 42.8 °F 37.5 °F 42.8 °F 100% 29.97 in 3.0 mi ENE 9.2 mph - N/A   Overcast
1:58 AM 42.4 °F 35.3 °F 42.4 °F 100% 29.97 in 3.0 mi ENE 13.8 mph - N/A   Overcast
2:23 AM 42.8 °F 37.5 °F 42.8 °F 100% 29.94 in 2.5 mi ENE 9.2 mph - N/A   Overcast
2:33 AM 42.8 °F 36.6 °F 42.8 °F 100% 29.93 in 2.0 mi ENE 11.5 mph - N/A   Overcast
2:43 AM 42.8 °F 37.5 °F 42.8 °F 100% 29.92 in 2.0 mi ENE 9.2 mph - N/A   Overcast
2:48 AM 42.8 °F 37.5 °F 42.8 °F 100% 29.92 in 1.8 mi ENE 9.2 mph - N/A   Overcast
3:01 AM 42.8 °F 36.2 °F 42.8 °F 100% 29.91 in 1.5 mi East 12.7 mph - N/A   Overcast
3:11 AM 42.8 °F 37.0 °F 42.8 °F 100% 29.90 in 1.2 mi East 10.4 mph - N/A   Overcast
3:12 AM 42.8 °F 37.0 °F 42.8 °F 100% 29.89 in 1.5 mi East 10.4 mph - N/A   Overcast
3:41 AM 42.8 °F 38.0 °F 42.8 °F 100% 29.88 in 2.0 mi East 8.1 mph - N/A   Overcast
3:46 AM 42.8 °F 38.0 °F 42.8 °F 100% 29.88 in 2.5 mi East 8.1 mph - N/A   Overcast
3:56 AM 42.8 °F 37.5 °F 42.8 °F 100% 29.87 in 3.0 mi East 9.2 mph - N/A   Overcast
3:58 AM 42.8 °F 38.0 °F 42.8 °F 100% 29.89 in 3.0 mi East 8.1 mph - 0.00 in   Overcast
4:03 AM 42.8 °F 39.3 °F 42.8 °F 100% 29.88 in 3.0 mi East 5.8 mph - N/A   Overcast
4:28 AM 42.8 °F 37.0 °F 42.8 °F 100% 29.85 in 4.0 mi East 10.4 mph - N/A   Overcast
4:38 AM 44.6 °F 41.4 °F 44.6 °F 100% 29.85 in 4.0 mi East 5.8 mph - N/A   Overcast
4:43 AM 44.6 °F 40.2 °F 44.6 °F 100% 29.85 in 4.0 mi East 8.1 mph - N/A   Overcast
4:58 AM 44.1 °F 39.5 °F 44.1 °F 100% 29.86 in 4.0 mi East 8.1 mph - N/A   Overcast
5:28 AM 44.6 °F 42.2 °F 44.6 °F 100% 29.84 in 5.0 mi ESE 4.6 mph - N/A   Overcast
5:58 AM 45.0 °F - 45.0 °F 100% 29.88 in 6.0 mi North 2.3 mph - N/A   Overcast
6:24 AM 44.6 °F 42.2 °F 44.6 °F 100% 29.86 in 5.0 mi WNW 4.6 mph - N/A Rain Light Rain
6:29 AM 44.6 °F 42.2 °F 44.6 °F 100% 29.86 in 4.0 mi NW 4.6 mph - N/A Rain Light Rain
6:35 AM 46.4 °F 44.3 °F 46.4 °F 100% 29.85 in 2.5 mi NW 4.6 mph - N/A Rain Light Rain
6:39 AM 46.4 °F 45.2 °F 46.4 °F 100% 29.85 in 2.0 mi North 3.5 mph - N/A   Overcast
6:49 AM 46.4 °F 44.3 °F 46.4 °F 100% 29.85 in 2.5 mi NNW 4.6 mph - N/A   Overcast
6:54 AM 46.4 °F 44.3 °F 46.4 °F 100% 29.86 in 2.0 mi NNW 4.6 mph - N/A   Overcast
6:58 AM 46.4 °F 43.5 °F 46.4 °F 100% 29.87 in 1.8 mi NNW 5.8 mph - 0.01 in   Overcast
6:59 AM 46.4 °F 43.5 °F 46.4 °F 100% 29.85 in 1.8 mi North 5.8 mph - N/A Rain Light Rain
7:29 AM 44.6 °F 39.7 °F 44.6 °F 100% 29.87 in 2.0 mi NNW 9.2 mph - N/A Rain Light Rain
7:39 AM 44.6 °F 39.7 °F 44.6 °F 100% 29.87 in 2.5 mi NNW 9.2 mph - N/A Rain Light Rain
7:44 AM 44.6 °F 40.2 °F 44.6 °F 100% 29.87 in 3.0 mi NNW 8.1 mph - N/A Rain Light Rain
7:58 AM 44.2 °F 39.2 °F 44.2 °F 100% 29.89 in 4.0 mi North 9.2 mph - 0.04 in   Overcast
8:38 AM 44.6 °F 40.2 °F 44.6 °F 100% 29.87 in 9.0 mi NNE 8.1 mph - N/A Rain Light Rain
8:58 AM 44.6 °F 39.7 °F 44.6 °F 100% 29.89 in 10.0 mi North 9.2 mph - 0.00 in   Light Drizzle
9:05 AM 44.6 °F 39.7 °F 44.6 °F 100% 29.87 in 7.0 mi North 9.2 mph - N/A   Overcast
9:08 AM 44.6 °F 39.2 °F 44.6 °F 100% 29.87 in 5.0 mi North 10.4 mph - N/A Rain Light Rain
9:13 AM 44.6 °F 39.2 °F 44.6 °F 100% 29.87 in 4.0 mi North 10.4 mph - N/A Rain Light Rain
9:24 AM 44.6 °F 39.2 °F 44.6 °F 100% 29.86 in 3.0 mi North 10.4 mph - N/A   Overcast
9:29 AM 44.6 °F 38.4 °F 44.6 °F 100% 29.86 in 2.5 mi North 12.7 mph - N/A   Overcast
9:31 AM 44.6 °F 38.8 °F 44.6 °F 100% 29.86 in 2.5 mi North 11.5 mph - N/A   Light Drizzle
9:51 AM 44.6 °F 38.4 °F 44.6 °F 100% 29.86 in 2.5 mi North 12.7 mph - N/A   Overcast
9:53 AM 44.6 °F 38.8 °F 44.6 °F 100% 29.86 in 2.5 mi North 11.5 mph - N/A   Light Drizzle
9:58 AM 44.6 °F 39.2 °F 44.6 °F 100% 29.88 in 2.5 mi North 10.4 mph - 0.01 in   Light Drizzle
10:08 AM 44.6 °F 38.8 °F 44.6 °F 100% 29.85 in 3.0 mi North 11.5 mph - N/A Rain Light Rain
10:28 AM 44.6 °F 39.2 °F 44.6 °F 100% 29.86 in 2.5 mi North 10.4 mph - N/A Rain Light Rain
10:43 AM 44.6 °F 38.4 °F 44.6 °F 100% 29.86 in 3.0 mi North 12.7 mph - N/A Rain Light Rain
10:58 AM 44.1 °F 37.7 °F 44.1 °F 100% 29.88 in 4.0 mi North 12.7 mph - 0.00 in Rain Light Rain
11:58 AM 45.0 °F 39.7 °F 45.0 °F 100% 29.86 in 3.0 mi NNE 10.4 mph - 0.00 in Rain Light Rain
12:07 PM 44.6 °F 38.8 °F 44.6 °F 100% 29.83 in 4.0 mi NNE 11.5 mph - N/A   Overcast
12:58 PM 45.9 °F 40.4 °F 45.9 °F 100% 29.83 in 4.0 mi NNE 11.5 mph - 0.00 in   Overcast
1:17 PM 46.4 °F 41.1 °F 46.4 °F 100% 29.79 in 3.0 mi NNE 11.5 mph - N/A Rain Light Rain
1:44 PM 46.4 °F 41.1 °F 46.4 °F 100% 29.76 in 4.0 mi NE 11.5 mph - N/A   Overcast
1:58 PM 46.6 °F - 46.6 °F 100% 29.78 in 4.0 mi NNE 11.5 mph - 0.00 in   Overcast
2:20 PM 46.4 °F 41.5 °F 46.4 °F 100% 29.74 in 3.0 mi NE 10.4 mph - N/A Rain Light Rain
2:29 PM 46.4 °F 41.9 °F 46.4 °F 100% 29.73 in 3.0 mi NE 9.2 mph - N/A   Overcast
2:58 PM 46.6 °F - 46.6 °F 100% 29.72 in 4.0 mi NNE 10.4 mph - 0.00 in   Overcast
3:33 PM 46.4 °F 40.7 °F 46.4 °F 100% 29.75 in 2.5 mi NNW 12.7 mph - N/A Rain Light Rain
3:48 PM 46.4 °F 41.1 °F 46.4 °F 100% 29.73 in 3.0 mi NNW 11.5 mph - N/A Rain Light Rain
3:58 PM 46.2 °F 40.8 °F 46.2 °F 100% 29.75 in 4.0 mi North 11.5 mph - 0.07 in Rain Light Rain
4:03 PM 46.4 °F 41.1 °F 46.4 °F 100% 29.73 in 10.0 mi North 11.5 mph - N/A Rain Light Rain
4:18 PM 46.4 °F 41.1 °F 46.4 °F 100% 29.72 in 9.0 mi North 11.5 mph - N/A Rain Light Rain
4:38 PM 46.4 °F 41.9 °F 46.4 °F 100% 29.73 in 4.0 mi North 9.2 mph - N/A Rain Light Rain
4:48 PM 46.4 °F 41.1 °F 46.4 °F 100% 29.73 in 8.0 mi NNW 11.5 mph - N/A Rain Light Rain
4:58 PM 46.6 °F - 46.6 °F 100% 29.75 in 6.0 mi NNW 10.4 mph - 0.03 in Rain Light Rain
5:08 PM 46.4 °F 40.7 °F 46.4 °F 100% 29.73 in 7.0 mi North 12.7 mph - N/A Rain Light Rain
5:21 PM 46.4 °F 40.7 °F 46.4 °F 100% 29.73 in 9.0 mi North 12.7 mph - N/A Rain , Thunderstorm Light Thunderstorms and Rain
5:36 PM 46.4 °F 41.1 °F 46.4 °F 100% 29.73 in 9.0 mi North 11.5 mph - N/A Rain , Thunderstorm Light Rain
5:41 PM 46.4 °F 40.4 °F 46.4 °F 100% 29.73 in 7.0 mi North 13.8 mph - N/A Rain Light Rain
5:58 PM 46.0 °F 39.9 °F 46.0 °F 100% 29.73 in 8.0 mi North 13.8 mph - 0.00 in Rain Light Rain
6:07 PM 46.4 °F 40.7 °F 46.4 °F 100% 29.73 in 10.0 mi North 12.7 mph - N/A   Overcast
6:12 PM 46.4 °F 40.1 °F 46.4 °F 100% 29.73 in 10.0 mi North 15.0 mph - N/A   Overcast
6:25 PM 46.4 °F 40.1 °F 46.4 °F 100% 29.73 in 10.0 mi North 15.0 mph - N/A Rain Light Rain
6:35 PM 44.6 °F 37.8 °F 44.6 °F 100% 29.73 in 8.0 mi North 15.0 mph - N/A Rain Light Rain
6:40 PM 44.6 °F 37.8 °F 44.6 °F 100% 29.74 in 10.0 mi North 15.0 mph - N/A   Overcast
6:50 PM 44.6 °F 37.4 °F 44.6 °F 100% 29.72 in 10.0 mi North 16.1 mph - N/A   Overcast
6:58 PM 45.0 °F 37.9 °F 45.0 °F 100% 29.74 in 10.0 mi North 16.1 mph - 0.01 in   Overcast
7:13 PM 44.6 °F 38.1 °F 44.6 °F 100% 29.73 in 10.0 mi North 13.8 mph - N/A   Overcast
7:18 PM 44.6 °F 38.1 °F 44.6 °F 100% 29.71 in 10.0 mi North 13.8 mph - N/A   Overcast
7:37 PM 44.6 °F 36.9 °F 44.6 °F 100% 29.72 in 10.0 mi North 18.4 mph 23.0 mph N/A Rain Light Rain
7:47 PM 44.6 °F 37.2 °F 44.6 °F 100% 29.72 in 10.0 mi North 17.3 mph 25.3 mph N/A   Overcast
7:53 PM 44.6 °F 36.9 °F 44.6 °F 100% 29.71 in 10.0 mi North 18.4 mph - N/A Rain Rain
7:58 PM 43.9 °F 36.5 °F 43.9 °F 100% 29.73 in 8.0 mi North 16.1 mph - 0.02 in Rain Heavy Rain
8:18 PM 42.8 °F 34.8 °F 42.8 °F 100% 29.71 in 10.0 mi North 17.3 mph - N/A Rain , Thunderstorm Light Rain
8:28 PM 42.8 °F 33.5 °F 42.8 °F 100% 29.70 in 10.0 mi North 23.0 mph 24.2 mph N/A Rain Light Rain
8:33 PM 42.8 °F 33.3 °F 42.8 °F 100% 29.69 in 10.0 mi North 24.2 mph - N/A Rain Light Rain
8:35 PM 42.8 °F 33.5 °F 42.8 °F 100% 29.70 in 10.0 mi North 23.0 mph 29.9 mph N/A   Overcast
8:50 PM 42.8 °F 34.8 °F 42.8 °F 100% 29.68 in 10.0 mi North 17.3 mph - N/A   Overcast
8:58 PM 42.8 °F 34.3 °F 42.8 °F 100% 29.70 in 10.0 mi NNE 19.6 mph 24.2 mph 0.03 in   Overcast
9:58 PM 42.4 °F 34.1 °F 42.4 °F 100% 29.72 in 10.0 mi NNE 18.4 mph - N/A   Overcast
10:55 PM 42.8 °F 34.3 °F 42.8 °F 100% 29.67 in 10.0 mi NNE 19.6 mph - N/A   Overcast
10:58 PM 42.3 °F 34.1 °F 42.3 °F 100% 29.70 in 10.0 mi NNE 17.3 mph - N/A   Overcast
11:13 PM 42.8 °F 34.5 °F 42.8 °F 100% 29.69 in 10.0 mi North 18.4 mph 32.2 mph N/A Rain Light Rain
11:28 PM 42.8 °F 35.1 °F 42.8 °F 100% 29.69 in 10.0 mi North 16.1 mph 24.2 mph N/A Rain Light Rain
11:30 PM 42.8 °F 35.1 °F 42.8 °F 100% 29.70 in 10.0 mi North 16.1 mph 24.2 mph N/A Rain , Thunderstorm Light Thunderstorms and Rain
11:31 PM 42.8 °F 34.8 °F 42.8 °F 100% 29.70 in 10.0 mi North 17.3 mph 24.2 mph N/A Thunderstorm Thunderstorm
11:41 PM 42.8 °F 34.5 °F 42.8 °F 100% 29.71 in 7.0 mi North 18.4 mph 25.3 mph N/A Thunderstorm Thunderstorm
11:42 PM 42.8 °F 34.5 °F 42.8 °F 100% 29.71 in 7.0 mi North 18.4 mph 25.3 mph N/A Rain , Thunderstorm Light Thunderstorms and Rain
11:47 PM 42.8 °F 34.0 °F 42.8 °F 100% 29.70 in 7.0 mi North 20.7 mph 25.3 mph N/A Rain , Thunderstorm Thunderstorms and Rain
11:52 PM 42.8 °F 34.0 °F 42.8 °F 100% 29.70 in 10.0 mi North 20.7 mph 26.5 mph N/A Rain , Thunderstorm Light Thunderstorms and Rain
11:58 PM 41.9 °F 33.7 °F 41.9 °F 100% 29.70 in 10.0 mi North 17.3 mph 26.5 mph 0.03 in Rain , Thunderstorm Light Thunderstorms and Rain
11:59 PM 42.8 °F 34.0 °F 42.8 °F 100% 29.69 in 10.0 mi North 20.7 mph 26.5 mph N/A Rain Light Rain